Theta_e
358 359 358 354 355 354 353 351 351 351 350 349 348 352 351 349 350 349 349 348 346 347 349 348 349 351 350 355 357 347 350 350 336 328 330 332 332 333 336 338 335 335 331
359 358 357 356 356 354 353 350 352 350 350 349 348 346 349 348 346 346 344 343 343 342 343 345 346 347 349 353 354 349 350 352 336 326 326 325 327 333 335 335 335 334 332
359 358 353 354 354 355 352 351 351 350 349 348 347 347 349 349 343 344 344 343 343 343 343 344 344 345 346 349 350 350 349 348 337 328 323 324 323 329 330 334 335 335 331
357 355 352 353 354 353 352 351 350 350 349 349 348 348 346 345 344 343 340 340 343 343 343 343 343 343 345 346 347 348 347 340 337 326 322 321 321 324 327 326 326 328 324
355 355 352 354 354 353 351 350 350 349 349 350 348 348 347 344 340 343 340 340 342 342 342 343 344 336 333 336 342 346 342 337 331 328 322 321 319 319 321 328 327 327 328
355 354 353 354 355 352 352 350 350 353 351 351 346 346 345 345 324 329 331 340 340 341 341 341 342 334 331 329 332 330 340 338 332 328 325 321 322 322 327 324 325 323 319
357 355 353 355 353 355 353 350 351 352 353 352 350 347 345 344 321 321 326 331 339 339 340 340 338 335 336 338 328 328 329 329 334 336 330 326 324 327 329 322 324 327 325
358 354 354 354 352 353 353 352 352 353 350 350 349 347 346 342 320 317 321 328 338 338 337 338 340 339 338 337 339 337 336 337 336 334 334 333 334 332 331 331 326 329 329
356 354 353 353 352 352 352 355 354 351 349 349 349 346 345 343 317 315 318 328 334 339 337 337 336 337 324 324 337 337 336 335 322 321 323 324 327 325 330 326 324 323 321
355 353 353 353 352 352 353 354 354 350 348 346 346 344 334 341 314 313 316 327 332 337 340 339 321 323 318 318 335 336 333 335 333 332 333 328 329 329 324 336 331 324 325
355 354 354 354 354 353 356 354 350 349 347 347 343 344 343 340 334 310 310 324 330 331 333 335 334 314 312 312 311 335 331 330 330 333 333 333 334 335 333 334 339 336 331
356 354 353 353 350 351 353 352 349 347 345 342 342 341 340 344 322 311 309 310 322 330 333 334 328 308 307 307 312 313 310 316 331 329 330 329 329 330 331 334 338 337 337
356 354 353 352 351 350 348 345 341 342 340 340 337 337 338 339 340 312 308 308 311 324 329 318 313 304 304 306 305 306 305 320 322 324 324 324 324 325 336 335 336 333 331
340 339 342 344 344 344 344 342 340 339 339 337 336 336 341 343 342 340 333 330 316 322 324 329 325 319 316 319 317 310 314 318 321 323 323 324 327 325 321 322 319 320 318
342 338 340 341 341 340 342 340 340 339 333 336 336 336 333 332 330 313 314 327 326 323 323 334 331 331 329 327 326 324 319 319 320 324 324 324 323 325 321 323 321 319 316
337 338 337 338 339 340 339 335 312 312 308 305 302 312 326 308 301 299 297 297 297 299 319 322 323 326 328 330 328 328 328 324 325 325 325 325 320 320 319 321 323 320 318
340 343 339 335 338 334 332 331 330 318 304 301 302 302 302 300 297 296 295 297 297 302 321 324 323 324 323 324 324 325 324 327 327 321 321 323 321 320 318 317 318 319 320
340 320 337 332 331 329 329 330 326 329 328 328 305 307 298 298 299 298 296 299 322 312 327 326 325 325 326 326 325 326 324 321 318 318 318 319 318 316 314 313 313 313 314
326 327 329 330 328 326 330 330 327 327 326 326 331 308 305 297 297 296 295 323 325 325 330 330 328 326 325 325 324 323 321 319 316 315 313 314 313 312 311 313 314 308 311
322 320 320 322 325 329 327 326 325 326 329 331 327 324 325 320 324 325 324 328 328 326 325 329 329 329 325 325 323 323 320 318 317 317 315 313 313 313 312 311 313 313 313
323 324 323 323 321 326 326 325 325 325 328 328 328 320 305 326 323 324 326 325 323 323 323 328 327 331 332 329 326 324 324 321 320 319 317 315 313 312 311 311 312 312 312
323 324 325 325 325 324 324 326 325 324 325 325 328 326 305 323 324 321 321 321 321 324 325 325 324 321 320 320 320 318 319 318 320 321 322 320 318 316 315 314 313 312 311
321 321 320 320 321 319 322 323 324 325 326 325 324 320 319 319 320 320 322 321 320 321 322 321 319 318 320 320 318 315 311 309 311 312 312 314 317 317 316 314 314 314 310
319 320 321 321 322 322 322 323 322 316 318 318 319 322 322 321 320 318 320 320 320 319 320 319 318 315 315 315 315 313 307 302 309 310 314 315 313 311 312 312 312 311 311
318 318 318 318 321 320 321 320 320 319 320 319 318 317 318 318 316 317 319 317 317 315 314 315 315 316 316 315 314 313 297 287 302 293 314 314 313 312 311 311 310 309 307
316 316 315 315 316 318 317 317 317 316 314 315 315 315 314 314 314 315 316 316 314 314 316 314 313 314 310 310 310 295 289 286 296 287 303 313 310 309 308 308 308 307 306
Wind_Speed
8 7 6 6 8 6 6 5 5 3 3 4 2 3 1 2 4 3 4 3 5 4 4 5 6 5 6 3 5 4 5 4 6 3 2 3 3 6 5 6 8 8 8
7 6 8 8 8 6 6 5 5 4 4 4 3 2 3 6 2 4 6 3 4 3 3 4 6 4 2 4 4 6 5 4 7 7 3 1 2 4 4 5 5 5 9
9 9 7 9 7 6 7 6 5 5 5 6 4 4 3 3 3 4 5 5 4 4 3 3 4 4 4 2 3 4 4 4 8 6 4 2 2 3 4 4 3 6 7
11 9 7 9 8 8 7 6 6 6 6 5 5 4 4 4 4 4 3 5 5 4 2 4 3 2 3 1 2 4 5 7 7 7 4 4 2 1 2 5 5 7 6
11 10 8 8 8 8 8 7 7 7 7 5 3 3 5 5 4 4 4 4 5 4 2 5 7 6 8 8 2 4 7 6 6 8 5 3 4 4 7 7 7 7 8
10 9 8 9 7 8 6 7 6 4 4 4 6 5 5 7 8 6 3 6 4 4 4 3 5 5 6 6 6 11 2 8 8 6 6 8 9 8 8 5 5 7 7
11 11 11 11 11 9 7 7 6 4 5 4 4 5 6 4 3 1 2 6 5 4 3 3 6 7 4 6 4 4 6 7 2 7 8 9 8 10 10 9 9 10 4
10 11 11 11 11 10 9 8 5 3 2 3 5 4 5 2 3 3 5 4 7 4 4 4 5 3 4 4 6 5 4 5 6 6 7 8 9 11 9 9 4 2 5
12 11 12 12 11 8 9 7 7 3 3 3 2 2 5 5 6 6 3 5 7 5 3 3 4 3 6 5 6 5 5 4 7 7 5 5 6 12 8 7 5 7 4
14 13 12 11 12 11 9 7 6 5 4 4 1 4 1 5 9 7 5 5 7 5 4 4 2 3 6 2 4 1 4 5 6 6 5 4 6 8 11 11 10 10 10
13 12 12 11 10 8 8 6 7 6 4 1 2 1 3 5 5 8 6 5 5 5 4 5 5 10 7 5 3 7 1 5 3 6 7 8 8 8 9 11 10 9 7
11 11 11 10 8 8 8 8 7 5 4 4 4 4 5 3 5 10 9 8 8 6 6 6 4 10 8 6 5 3 1 4 6 7 6 6 8 9 9 11 10 9 5
12 8 8 7 6 7 7 6 5 5 5 4 3 5 4 4 5 7 12 9 8 8 6 3 8 3 4 5 8 3 4 7 7 8 7 7 7 6 4 4 3 1 4
7 10 5 6 8 9 7 8 5 3 1 1 5 5 2 4 2 4 7 7 10 8 9 9 6 4 9 6 6 7 7 8 7 8 8 8 5 5 6 6 7 7 8
6 7 8 6 7 6 4 3 3 4 4 3 2 3 4 3 4 7 5 5 6 6 8 7 7 9 9 9 9 9 8 8 9 9 9 8 6 4 6 6 7 8 10
5 7 7 8 8 8 7 7 7 12 8 7 3 4 4 11 8 7 5 4 5 5 1 3 5 7 7 6 6 10 10 10 10 11 8 3 3 3 4 4 10 10 10
10 5 5 5 5 5 2 3 9 3 2 4 6 6 5 3 2 2 0 5 4 6 4 6 7 7 6 5 6 6 5 6 3 3 4 5 4 3 4 5 6 8 9
4 3 6 3 3 5 5 3 3 8 10 10 10 12 12 8 7 6 5 4 6 5 5 4 5 5 4 4 4 5 6 3 2 2 2 4 4 4 4 4 3 4 5
8 8 7 7 5 4 4 3 4 4 4 4 10 4 5 8 5 5 5 7 6 6 1 2 2 2 3 3 3 3 3 3 2 3 3 5 6 6 7 7 7 7 8
7 15 12 9 8 8 6 4 6 8 5 4 7 7 6 5 8 7 7 7 4 6 7 3 1 2 4 3 3 2 2 3 4 5 6 6 6 7 9 10 10 11 11
3 5 10 8 10 10 13 12 7 3 3 5 5 6 4 4 7 3 2 3 8 9 8 3 5 5 5 2 3 3 3 4 5 6 6 7 7 7 8 9 9 10 9
6 7 10 12 9 6 6 6 4 4 4 7 6 4 7 5 7 6 7 7 6 5 8 7 6 10 8 8 9 9 9 9 8 5 4 6 7 7 8 8 8 9 10
5 7 5 5 6 2 4 6 3 8 9 11 11 7 5 6 8 8 9 11 9 11 11 11 10 9 10 9 10 9 9 8 8 7 7 7 7 5 5 6 7 8 8
5 5 6 7 6 6 10 9 8 13 8 7 6 8 8 8 9 8 7 8 7 7 6 7 7 10 9 9 8 9 8 7 7 8 9 8 7 7 6 6 6 8 8
7 6 6 6 4 6 8 8 9 8 9 9 10 8 7 7 6 7 7 6 5 6 6 7 6 6 7 11 12 11 8 7 8 11 9 6 8 7 7 6 7 8 7
7 7 7 7 6 8 8 8 8 9 8 8 7 7 6 6 9 6 5 7 8 5 4 3 6 12 7 9 11 8 6 6 9 10 11 8 7 7 8 8 10 7 8
Wind_Direction
196 158 165 188 186 168 198 182 193 202 227 233 212 288 327 23 283 243 257 231 219 259 273 268 262 239 259 227 235 209 209 202 131 101 113 123 123 142 149 138 164 132 110
177 183 169 169 182 184 197 178 178 195 199 215 217 204 257 228 280 279 262 303 265 263 295 264 285 301 298 265 243 199 194 183 138 137 120 129 108 163 143 161 188 142 116
180 194 181 156 183 177 182 185 176 195 211 216 208 202 226 256 267 254 303 283 261 247 257 293 292 282 282 340 274 198 174 143 138 145 124 106 76 178 181 169 61 113 103
162 201 174 168 172 185 179 178 188 216 226 232 233 242 256 259 274 246 265 268 269 232 267 268 275 1 315 30 343 158 148 130 132 135 114 123 121 139 181 165 168 152 152
163 212 171 187 174 183 175 184 201 214 229 242 237 247 264 240 261 197 241 253 248 246 195 258 63 52 47 44 0 157 147 150 153 153 148 130 148 172 190 187 183 179 176
172 201 177 179 174 183 181 196 211 199 236 239 254 247 255 280 46 53 350 299 259 266 234 228 136 132 94 64 57 58 109 164 164 170 172 178 183 185 192 187 170 177 179
183 189 182 177 178 175 184 198 206 211 237 219 263 265 277 270 126 119 322 301 284 249 264 241 262 99 198 137 105 109 85 59 143 178 188 188 179 191 184 183 204 211 193
185 188 180 182 181 181 185 190 217 238 256 238 246 263 256 165 169 249 281 291 291 255 272 274 286 139 44 341 174 148 157 175 166 187 199 197 204 187 193 195 194 180 213
190 183 184 187 181 179 189 180 193 210 221 259 280 278 242 210 175 226 250 278 279 257 235 263 310 269 97 11 294 154 155 158 119 89 75 60 168 168 176 169 189 196 214
191 183 186 190 186 187 187 171 157 161 198 243 239 265 232 259 154 204 218 252 277 248 213 185 194 64 153 166 275 179 226 187 182 169 170 145 160 178 185 205 197 200 215
181 179 181 182 189 184 182 151 172 179 133 168 263 293 236 254 171 179 229 256 286 293 256 201 198 168 186 197 256 302 352 303 131 197 195 188 188 180 194 218 229 226 238
172 173 179 177 191 158 172 178 183 161 146 175 252 244 234 223 212 180 199 235 287 301 308 308 107 155 174 189 225 178 323 285 233 212 215 199 187 189 201 200 222 228 221
165 162 158 155 161 157 157 133 162 177 257 191 238 251 253 209 194 185 190 207 246 264 262 55 32 166 163 203 243 252 251 246 249 244 241 233 217 229 218 182 148 246 286
130 105 133 158 169 173 172 161 212 230 249 254 265 259 263 216 206 180 204 212 231 245 244 252 236 208 220 246 198 207 232 247 245 246 238 239 224 185 193 190 214 207 226
149 126 183 173 187 167 214 157 184 72 56 317 292 307 323 284 25 68 36 339 337 350 330 250 230 228 235 226 233 216 213 230 234 242 252 248 253 229 199 192 220 223 227
183 180 187 178 193 184 175 145 69 93 98 104 97 16 55 85 97 80 45 4 1 10 286 249 261 277 276 263 245 233 228 219 224 238 232 247 348 314 304 265 227 226 237
222 182 184 208 186 189 157 169 147 156 223 217 204 201 208 298 125 130 341 297 255 164 225 219 227 236 239 255 277 270 252 277 291 163 162 197 203 224 256 268 283 256 236
188 181 181 218 171 149 186 196 230 171 191 191 213 223 202 202 205 217 219 249 214 205 231 269 270 256 249 248 248 254 266 247 187 253 222 228 238 252 247 251 275 294 304
31 19 9 3 358 27 356 325 265 224 211 254 175 160 191 201 184 179 210 261 285 306 208 303 276 284 276 274 286 288 278 247 200 204 219 229 230 228 247 257 264 250 252
7 5 9 351 329 325 324 259 263 291 287 99 101 142 178 173 211 207 212 229 306 329 334 136 236 292 294 293 288 286 265 260 258 251 245 234 231 232 245 248 244 250 253
185 221 226 227 239 239 226 230 233 259 305 58 75 66 88 308 345 58 122 45 16 42 45 22 359 358 303 266 261 278 265 245 248 255 250 246 232 237 234 244 249 249 248
284 243 213 218 241 284 350 319 297 316 30 65 124 120 38 307 61 53 45 50 45 22 24 359 3 25 26 32 32 21 21 24 9 335 276 247 225 229 238 242 240 244 251
301 303 282 256 262 329 267 247 344 20 15 32 73 74 67 64 48 48 46 46 36 26 26 27 24 20 16 14 31 25 22 2 347 351 357 347 343 307 272 261 249 258 251
5 352 358 7 32 325 53 59 75 92 84 88 91 74 66 63 56 50 56 52 42 58 40 52 43 41 33 33 35 40 30 359 346 351 344 340 334 341 332 306 281 275 274
44 56 61 53 49 70 88 82 73 75 68 65 68 70 80 77 70 72 53 73 68 68 56 55 59 53 52 48 39 32 22 348 350 325 329 347 349 352 348 342 341 323 330
100 75 68 72 70 73 73 75 80 85 86 92 90 91 82 77 80 77 67 73 75 48 49 56 46 77 31 37 33 31 356 345 341 328 319 330 344 340 349 340 346 343 337